CW4141 Weather Reports


Display with metric or nautical units.
time (UTC)temp
F
wind
direction
speed
MPH
gust
MPH
rain 1hr
in
rain 24hr
in
rain mn
in
humidity
%
barometer
mb
20260901084558 62 0 0.0 0.0 0.00 0.00 0.00 68 1015.7
20260901084510 62 155 0.0 0.0 0.00 0.00 0.00 69 1011.5
20260901083059 62 0 0.0 0.0 0.00 0.00 0.00 68 1015.8
20260901083023 62 155 0.0 0.0 0.00 0.00 0.00 68 1011.5
20260901081556 63 0 0.0 0.0 0.00 0.00 0.00 67 1015.8
20260901081506 63 155 0.0 0.0 0.00 0.00 0.00 68 1011.6
20260901080108 63 0 0.0 0.0 0.00 0.00 0.00 67 1015.9
20260901080004 64 155 0.0 0.0 0.00 0.00 0.00 67 1011.7
20260901074603 64 0 0.0 0.0 0.00 0.00 0.00 67 1016.0
20260901074506 64 155 0.0 0.0 0.00 0.00 0.00 68 1011.7
20260901073104 65 0 0.0 0.0 0.00 0.00 0.00 68 1016.0
20260901073059 65 155 0.0 0.0 0.00 0.00 0.00 68 1011.6
20260901071606 65 0 0.0 0.0 0.00 0.00 0.00 67 1015.9
20260901071557 65 155 0.0 0.0 0.00 0.00 0.00 68 1011.5
20260901070107 66 0 0.0 0.0 0.00 0.00 0.00 68 1015.9
20260901070055 66 155 0.0 0.0 0.00 0.00 0.00 68 1011.5
20260901064601 66 0 0.0 0.0 0.00 0.00 0.00 67 1015.7
20260901064558 66 155 0.0 0.0 0.00 0.00 0.00 67 1011.5
20260901063058 67 0 0.0 0.0 0.00 0.00 0.00 66 1015.7
20260901063055 67 155 0.0 0.0 0.00 0.00 0.00 67 1011.3
20260901061559 67 0 0.0 0.0 0.00 0.00 0.00 67 1015.6
20260901061556 67 155 0.0 0.0 0.00 0.00 0.00 67 1011.3
20260901060057 67 0 0.0 1.0 0.00 0.00 0.00 66 1015.7
20260901060053 67 155 0.0 1.0 0.00 0.00 0.00 67 1011.4
20260901054553 68 155 0.0 0.0 0.00 0.00 0.00 66 1011.3
20260901053118 68 155 0.0 1.0 0.00 0.00 0.00 65 1011.4
20260901053057 68 0 0.0 1.0 0.00 0.00 0.00 65 1015.7
20260901051556 69 0 0.0 0.0 0.00 0.00 0.00 63 1015.7
20260901051551 69 155 0.0 0.0 0.00 0.00 0.00 64 1011.3
20260901050104 69 0 0.0 0.0 0.00 0.00 0.00 62 1015.7
20260901050056 69 155 0.0 0.0 0.00 0.00 0.00 63 1011.3
20260901044601 70 0 0.0 3.0 0.00 0.00 0.00 62 1015.7
20260901044551 70 155 0.0 3.0 0.00 0.00 0.00 62 1011.2
20260901043059 71 0 0.0 1.0 0.00 0.00 0.00 60 1015.6
20260901043050 71 155 0.0 1.0 0.00 0.00 0.00 60 1011.1
20260901041604 71 0 0.0 2.0 0.00 0.00 0.00 59 1015.5
20260901041549 71 155 0.0 2.0 0.00 0.00 0.00 60 1010.9
20260901040054 72 0 0.0 2.0 0.00 0.00 0.00 58 1015.2
20260901040048 72 155 0.0 2.0 0.00 0.00 0.00 59 1010.5
20260901034602 73 0 0.0 1.0 0.00 0.00 0.00 56 1014.9
20260901034550 73 155 0.0 1.0 0.00 0.00 0.00 57 1010.4
20260901033116 73 0 0.0 3.0 0.00 0.00 0.00 54 1014.7
20260901033054 73 155 0.0 3.0 0.00 0.00 0.00 55 1010.2
20260901031605 74 167 0.0 5.0 0.00 0.00 0.00 54 1009.9
20260901031556 74 167 1.0 6.0 0.00 0.00 0.00 54 1014.4
20260901030058 75 178 0.0 5.0 0.00 0.00 0.00 49 1014.2
20260901030046 75 178 0.0 5.0 0.00 0.00 0.00 50 1009.8
20260901024600 76 0 1.0 7.0 0.00 0.00 0.00 46 1014.0
20260901024548 76 183 1.0 6.0 0.00 0.00 0.00 46 1009.4
20260901023058 77 159 1.0 6.0 0.00 0.00 0.00 42 1013.8
20260901023045 77 159 2.0 5.0 0.00 0.00 0.00 43 1009.2
20260901021603 78 0 1.0 7.0 0.00 0.00 0.00 38 1013.6
20260901021545 78 234 2.0 7.0 0.00 0.00 0.00 38 1009.2
20260901020053 80 0 1.0 6.0 0.00 0.00 0.00 36 1013.5
20260901020044 80 151 1.0 4.0 0.00 0.00 0.00 37 1009.1
20260901014601 81 148 1.0 6.0 0.00 0.00 0.00 36 1013.4
20260901014548 81 148 1.0 6.0 0.00 0.00 0.00 37 1008.8
20260901013112 82 202 1.0 6.0 0.00 0.00 0.00 34 1013.6
20260901013049 82 202 1.0 5.0 0.00 0.00 0.00 34 1009.0
20260901011612 83 131 1.0 5.0 0.00 0.00 0.00 31 1013.9
20260901011542 83 131 1.0 5.0 0.00 0.00 0.00 32 1009.2
20260901010111 84 165 3.0 8.0 0.00 0.00 0.00 32 1013.9
20260901010041 84 165 2.0 8.0 0.00 0.00 0.00 33 1009.2
20260901004600 85 149 2.0 7.0 0.00 0.00 0.00 29 1013.6
20260901004540 85 146 3.0 9.0 0.00 0.00 0.00 30 1008.9
20260901003059 85 201 1.0 10.0 0.00 0.00 0.00 28 1013.5
20260901003040 85 201 1.0 8.0 0.00 0.00 0.00 28 1008.9
20260901001604 86 189 0.0 11.0 0.00 0.00 0.00 26 1013.4
20260901001540 86 189 0.0 7.0 0.00 0.00 0.00 27 1008.9
20260901000104 87 126 3.0 11.0 0.00 0.00 0.00 25 1013.5
20260901000039 87 125 3.0 8.0 0.00 0.00 0.00 25 1008.8
20260831234602 88 171 2.0 12.0 0.00 0.00 0.00 26 1013.3
20260831234539 88 171 2.0 12.0 0.00 0.00 0.00 27 1008.8
20260831233106 90 215 4.0 12.0 0.00 0.00 0.00 24 1013.4
20260831233037 90 215 4.0 11.0 0.00 0.00 0.00 25 1008.8
20260831231600 90 194 2.0 8.0 0.00 0.00 0.00 23 1013.4
20260831231538 90 194 2.0 6.0 0.00 0.00 0.00 24 1008.9
20260831230117 91 244 2.0 8.0 0.00 0.00 0.00 19 1013.6
20260831230053 91 252 2.0 7.0 0.00 0.00 0.00 20 1009.1
20260831224600 92 160 2.0 8.0 0.00 0.00 0.00 19 1013.5
20260831224535 92 146 3.0 8.0 0.00 0.00 0.00 20 1009.2
20260831223059 92 162 2.0 7.0 0.00 0.00 0.00 19 1013.7
20260831223033 92 148 2.0 7.0 0.00 0.00 0.00 20 1009.2
20260831221610 93 218 2.0 7.0 0.00 0.00 0.00 19 1013.5
20260831221541 93 171 3.0 7.0 0.00 0.00 0.00 19 1009.3
20260831220057 93 191 1.0 8.0 0.00 0.00 0.00 22 1013.4
20260831220031 93 191 1.0 7.0 0.00 0.00 0.00 23 1009.4
20260831214612 92 200 2.0 9.0 0.00 0.00 0.00 24 1013.6
20260831214531 92 200 3.0 8.0 0.00 0.00 0.00 23 1009.7
20260831213058 92 213 1.0 7.0 0.00 0.00 0.00 27 1013.8
20260831213030 92 219 2.0 6.0 0.00 0.00 0.00 27 1009.8
20260831211608 92 205 2.0 10.0 0.00 0.00 0.00 27 1014.0
20260831211530 92 220 2.0 9.0 0.00 0.00 0.00 28 1009.9
20260831210100 93 138 3.0 9.0 0.00 0.00 0.00 22 1014.0
20260831210029 93 137 4.0 9.0 0.00 0.00 0.00 23 1010.2
20260831204556 93 229 2.0 8.0 0.00 0.00 0.00 24 1014.2
20260831204528 93 173 2.0 8.0 0.00 0.00 0.00 25 1010.3
20260831203108 93 225 0.0 8.0 0.00 0.00 0.00 29 1014.1
20260831203029 92 232 0.0 6.0 0.00 0.00 0.00 31 1010.3
20260831201556 93 221 1.0 6.0 0.00 0.00 0.00 28 1014.0
20260831201530 93 220 2.0 6.0 0.00 0.00 0.00 29 1010.2
20260831200107 92 187 0.0 5.0 0.00 0.00 0.00 29 1014.1
20260831200023 92 208 0.0 5.0 0.00 0.00 0.00 31 1010.3
20260831194614 90 214 2.0 6.0 0.00 0.00 0.00 31 1014.2
20260831194538 90 213 1.0 6.0 0.00 0.00 0.00 31 1010.4
20260831193056 90 194 2.0 6.0 0.00 0.00 0.00 29 1014.2
20260831193018 90 194 2.0 6.0 0.00 0.00 0.00 29 1010.6
20260831191555 90 133 2.0 8.0 0.00 0.00 0.00 27 1014.3
20260831191519 90 141 3.0 7.0 0.00 0.00 0.00 27 1010.7
20260831190108 89 142 1.0 5.0 0.00 0.00 0.00 32 1014.6
20260831190014 89 142 1.0 5.0 0.00 0.00 0.00 33 1010.7
20260831184605 88 130 2.0 8.0 0.00 0.00 0.00 33 1014.6
20260831184512 88 130 1.0 7.0 0.00 0.00 0.00 33 1010.7
20260831183101 87 221 1.0 8.0 0.00 0.00 0.00 37 1014.6
20260831183006 87 224 2.0 7.0 0.00 0.00 0.00 38 1010.8
20260831181559 86 0 2.0 5.0 0.00 0.00 0.00 40 1014.7
20260831181502 86 144 2.0 5.0 0.00 0.00 0.00 40 1010.7
20260831180100 85 171 2.0 7.0 0.00 0.00 0.00 44 1014.8
20260831180058 85 171 1.0 6.0 0.00 0.00 0.00 45 1010.8
20260831174600 84 189 1.0 4.0 0.00 0.00 0.00 43 1010.7
20260831173059 83 0 0.0 5.0 0.00 0.00 0.00 50 1014.8
20260831173050 83 195 0.0 5.0 0.00 0.00 0.00 51 1010.7
20260831171555 82 0 0.0 5.0 0.00 0.00 0.00 57 1014.8
20260831171547 82 159 0.0 4.0 0.00 0.00 0.00 58 1010.7
20260831170111 80 159 1.0 4.0 0.00 0.00 0.00 59 1010.7
20260831170052 80 159 1.0 5.0 0.00 0.00 0.00 58 1014.7
20260831164559 78 159 0.0 4.0 0.00 0.00 0.00 66 1014.6
20260831164537 78 159 0.0 3.0 0.00 0.00 0.00 67 1010.6
20260831163057 76 0 0.0 5.0 0.00 0.00 0.00 68 1014.5
20260831163036 76 159 0.0 4.0 0.00 0.00 0.00 69 1010.6
20260831161557 74 159 0.0 5.0 0.00 0.00 0.00 75 1014.5
20260831161527 74 159 0.0 4.0 0.00 0.00 0.00 75 1010.6
20260831160108 72 0 0.0 2.0 0.00 0.00 0.00 82 1014.4
20260831160030 72 159 0.0 2.0 0.00 0.00 0.00 83 1010.6
20260831154614 70 0 0.0 2.0 0.00 0.00 0.00 88 1014.6
20260831154520 70 159 0.0 2.0 0.00 0.00 0.00 89 1010.7
20260831153059 68 159 0.0 1.0 0.00 0.00 0.00 91 1014.5
20260831153016 68 159 0.0 1.0 0.00 0.00 0.00 92 1010.7
20260831151555 67 0 0.0 1.0 0.00 0.00 0.00 91 1014.4
20260831151517 67 159 0.0 1.0 0.00 0.00 0.00 92 1010.7
20260831150103 66 0 0.0 0.0 0.00 0.00 0.00 91 1014.3
20260831150014 66 159 0.0 0.0 0.00 0.00 0.00 92 1010.5
20260831144555 66 0 0.0 1.0 0.00 0.00 0.00 91 1014.1
20260831144521 66 159 0.0 1.0 0.00 0.00 0.00 91 1010.4
20260831143055 66 0 0.0 0.0 0.00 0.00 0.00 91 1014.0
20260831143005 66 159 0.0 0.0 0.00 0.00 0.00 91 1010.3
20260831141558 66 0 0.0 2.0 0.00 0.00 0.00 91 1013.9
20260831141510 66 159 0.0 2.0 0.00 0.00 0.00 91 1010.2
20260831140053 66 0 0.0 0.0 0.00 0.00 0.00 91 1013.6
20260831140001 66 159 0.0 0.0 0.00 0.00 0.00 91 1010.1
20260831134604 66 0 0.0 2.0 0.00 0.00 0.00 91 1013.4
20260831134559 66 159 0.0 2.0 0.00 0.00 0.00 91 1009.8
20260831133103 66 0 0.0 0.0 0.00 0.00 0.00 91 1013.1
20260831133059 66 159 0.0 0.0 0.00 0.00 0.00 91 1009.6
20260831131557 65 159 0.0 1.0 0.00 0.00 0.00 91 1009.6
20260831131555 65 0 0.0 1.0 0.00 0.00 0.00 91 1013.0
20260831130101 66 0 0.0 1.0 0.00 0.00 0.00 90 1013.0
20260831130056 66 159 0.0 1.0 0.00 0.00 0.00 91 1009.6
20260831124559 66 0 0.0 0.0 0.00 0.00 0.00 90 1012.9
20260831124556 66 159 0.0 0.0 0.00 0.00 0.00 91 1009.5
20260831123057 66 0 0.0 2.0 0.00 0.00 0.00 90 1013.0
20260831123055 66 159 0.0 2.0 0.00 0.00 0.00 91 1009.5
20260831121609 66 159 0.0 5.0 0.00 0.00 0.00 90 1013.0
20260831121555 66 159 0.0 4.0 0.00 0.00 0.00 91 1009.5
20260831120108 66 0 0.0 4.0 0.00 0.00 0.00 90 1013.4
20260831120053 66 159 0.0 3.0 0.00 0.00 0.00 91 1009.6
20260831114600 66 159 0.0 0.0 0.00 0.00 0.00 90 1013.7
20260831114553 66 159 0.0 1.0 0.00 0.00 0.00 90 1009.6
20260831113106 66 0 0.0 1.0 0.00 0.00 0.00 90 1014.0
20260831113059 66 159 0.0 1.0 0.00 0.00 0.00 90 1009.6
20260831111610 66 0 0.0 2.0 0.00 0.00 0.00 89 1014.1
20260831111555 66 159 0.0 2.0 0.00 0.00 0.00 90 1009.6
20260831110104 66 0 0.0 2.0 0.00 0.00 0.00 89 1014.1
20260831110051 66 159 0.0 2.0 0.00 0.00 0.00 89 1009.7
20260831104603 66 0 0.0 2.0 0.00 0.00 0.00 88 1014.3
20260831104550 66 159 0.0 2.0 0.00 0.00 0.00 89 1009.7
20260831103107 66 0 0.0 4.0 0.00 0.00 0.00 87 1014.2
20260831103101 66 159 0.0 3.0 0.00 0.00 0.00 88 1009.6
20260831101557 66 0 0.0 1.0 0.00 0.00 0.00 86 1014.1
20260831101555 66 159 0.0 1.0 0.00 0.00 0.00 87 1009.5
20260831100108 66 0 0.0 0.0 0.00 0.00 0.00 85 1014.2
20260831100044 66 159 0.0 0.0 0.00 0.00 0.00 86 1009.6
20260831094604 66 0 0.0 0.0 0.00 0.00 0.00 85 1014.1
20260831094543 66 159 0.0 0.0 0.00 0.00 0.00 86 1009.5
20260831093109 67 0 0.0 0.0 0.00 0.00 0.00 85 1014.2
20260831093047 67 159 0.0 0.0 0.00 0.00 0.00 85 1009.4
20260831091605 67 0 0.0 0.0 0.00 0.00 0.00 84 1014.0
20260831091542 67 159 0.0 0.0 0.00 0.00 0.00 84 1009.2
20260831090058 67 0 0.0 0.0 0.00 0.00 0.00 83 1014.0
20260831090050 67 159 0.0 0.0 0.00 0.00 0.00 84 1009.2